STARLINK-11513 [DTC] (62589 NORAD) Tracking and Keplerian Element Data

This shows tracking and keplerian element data for the satellite.

Feedback or suggestion? Click here.




ElementValue
Catalog62589
NameSTARLINK-11513 [DTC]
Epoch Orbit328
Epoch Day34.35822222
Epoch Year2025
RAAN15.5555
Inclination42.9997
Eccentricity0.0001587
Argument of Perigee236.3209
Mean Anonmoly123.751
Mean Motion15.77893564
Decay Rate0.00040427
L11 62589U 25008C 25034.35822222 .00040427 00000+0 23368-3 0 9996
L22 62589 42.9997 15.5555 0001587 236.3209 123.7510 15.77893564 3281



Live tracking and technical data element details for STARLINK-11513 [DTC] (NORAD 62589). STARLINK-11513 [DTC] can be tracked NOW for your location showing map with azimuth and elevation plus other details from your city location.







IsCatalogInMostPopularTable: catalog: 62589, numindb: 21
Update: records affected: 1



GetName: 62589 STARLINK-11513 [DTC]

Hit Count: updated at: Sat, 24 May 2025 16:30:58 GMT